HAIYANG-1B

Last updated on Wed Jul 02 2025 00:02:29 GMT+0000 (Coordinated Universal Time)

1 31113U 07010A 25182.55032243 .00000068 00000+0 41651-4 0 9993 2 31113 98.3141 173.7375 0014007 155.9680 204.2160 14.30898373950483
UTC large
Height (km)
Speed (km/s)
/
Latitude / Longitude
Inclination (degrees)
Orbital Period (minutes)
Azimuth
Elevation
Range (km)
Doppler Factor

Next 0 passes for location: London (51.5072 / 0.1276)

Sorry there are no passes over London.